Weather History for Perry, IA

Change the Weather History Date:

Sunday, January 20, 2013

  Actual Average Record
Temperature  
Mean Temperature 8 °F -  
Max Temperature 15 °F 28 °F 51 °F (1981)
Min Temperature 1 °F 8 °F -28 °F (1970)
Degree Days  
Heating Degree Days 56    
Moisture  
Dew Point 5 °F    
Average Humidity 78    
Maximum Humidity 87    
Minimum Humidity 66    
Precipitation  
Precipitation 0.00 in - - ()
Sea Level Pressure  
Sea Level Pressure 30.36 in    
Wind  
Wind Speed 12 mph (NW)    
Max Wind Speed 20 mph    
Max Gust Speed 26 mph    
Visibility 8 miles    
Events Snow    
Averages and records for this station are not official NWS values.
T = Trace of Precipitation, MM = Missing Value Source: NWS Daily Summary

Daily Weather History Graph

Daily Weather History Graph

Search for Another Location

Airport:

Trip Planner

Search our weather history database for the weather conditions in past years. The results will help you decide how hot, cold, wet, or windy it might be!

Date:

Astronomy

Jan. 20, 2013 Rise Set
Actual Time 7:38 AM CST 5:17 PM CST
Civil Twilight 7:08 AM CST 5:47 PM CST
Nautical Twilight 6:34 AM CST 6:21 PM CST
Astronomical Twilight 6:01 AM CST 6:54 PM CST
Moon 12:19 PM CST (1/20) 2:11 AM CST (1/20)
Length of Visible Light 10h 39m
Length of Day
9h 38m
Waxing Gibbous, 66% of the Moon is Illuminated
Jan 20
Waxing Gibbous
Jan 26
Full
Feb 3
Last Quarter
Feb 10
New
Feb 17
First Quarter

Hourly Weather History & Observations

Time (CST) Temp. Windchill Dew Point Humidity Pressure Visibility Wind Dir Wind Speed Gust Speed Precip Events Conditions
12:15 AM 15.8 °F -1.1 °F 6.4 °F 67% 30.29 in 10.0 mi NNW 19.6 mph 26.5 mph N/A   Clear
12:35 AM 15.8 °F -0.2 °F 7.3 °F 69% 30.30 in 10.0 mi NNW 17.3 mph 24.2 mph N/A   Clear
12:55 AM 15.4 °F 0.4 °F 6.8 °F 69% 30.32 in 10.0 mi NW 15.0 mph - N/A   Clear
1:15 AM 14.9 °F -0.3 °F 5.9 °F 68% 30.32 in 10.0 mi NNW 15.0 mph 23.0 mph N/A   Clear
1:35 AM 14.7 °F -1.1 °F 5.9 °F 68% 30.32 in 10.0 mi NW 16.1 mph - N/A   Clear
1:55 AM 14.4 °F 0.9 °F 5.9 °F 69% 30.33 in 10.0 mi NW 11.5 mph - N/A   Clear
2:15 AM 14.0 °F 0.5 °F 5.9 °F 70% 30.33 in 10.0 mi NW 11.5 mph - N/A   Clear
2:35 AM 13.8 °F 1.0 °F 5.7 °F 70% 30.34 in 10.0 mi NW 10.4 mph - N/A   Clear
2:55 AM 13.5 °F 0.5 °F 5.4 °F 70% 30.34 in 10.0 mi NW 10.4 mph - N/A   Clear
3:15 AM 12.9 °F -1.6 °F 4.3 °F 68% 30.34 in 10.0 mi NW 12.7 mph - N/A   Clear
3:35 AM 12.7 °F 2.4 °F 4.5 °F 70% 30.34 in 10.0 mi NNW 6.9 mph - N/A   Clear
3:55 AM 12.6 °F 1.1 °F 4.8 °F 71% 30.33 in 10.0 mi NW 8.1 mph - N/A   Clear
4:15 AM 12.6 °F -0.6 °F 5.0 °F 72% 30.33 in 10.0 mi NW 10.4 mph - N/A   Clear
4:35 AM 12.0 °F -1.3 °F 4.1 °F 71% 30.34 in 10.0 mi NNW 10.4 mph - N/A   Clear
4:55 AM 11.3 °F -4.3 °F 1.9 °F 66% 30.33 in 10.0 mi North 13.8 mph 19.6 mph N/A   Clear
5:15 AM 11.1 °F -3.9 °F 2.7 °F 69% 30.32 in 10.0 mi North 12.7 mph - N/A   Clear
5:35 AM 11.3 °F -1.3 °F 3.2 °F 70% 30.33 in 10.0 mi NNW 9.2 mph - N/A   Scattered Clouds
5:55 AM 11.3 °F -2.2 °F 3.4 °F 70% 30.32 in 10.0 mi North 10.4 mph - N/A   Scattered Clouds
6:15 AM 11.3 °F -2.2 °F 3.0 °F 69% 30.33 in 10.0 mi North 10.4 mph - N/A   Clear
6:35 AM 11.3 °F -1.3 °F 3.2 °F 70% 30.33 in 10.0 mi North 9.2 mph - N/A   Scattered Clouds
6:55 AM 11.3 °F -0.4 °F 3.7 °F 72% 30.33 in 10.0 mi North 8.1 mph - N/A   Scattered Clouds
7:15 AM 11.7 °F -0.9 °F 4.1 °F 72% 30.34 in 10.0 mi NNW 9.2 mph - N/A   Scattered Clouds
7:35 AM 11.3 °F -0.4 °F 3.2 °F 70% 30.35 in 10.0 mi NNW 8.1 mph - N/A   Overcast
7:55 AM 11.7 °F -1.7 °F 3.4 °F 69% 30.36 in 10.0 mi NNW 10.4 mph - N/A   Overcast
8:15 AM 11.8 °F -1.5 °F 3.7 °F 70% 30.36 in 10.0 mi NNW 10.4 mph - N/A   Overcast
8:35 AM 12.0 °F 0.5 °F 4.1 °F 71% 30.37 in 10.0 mi NNW 8.1 mph - N/A   Overcast
8:55 AM 12.0 °F -0.4 °F 3.6 °F 69% 30.37 in 10.0 mi NNW 9.2 mph - N/A   Overcast
9:15 AM 11.7 °F -3.2 °F 5.4 °F 76% 30.38 in 2.5 mi North 12.7 mph - N/A Snow Light Snow
9:35 AM 11.3 °F -2.9 °F 6.3 °F 80% 30.39 in 2.0 mi NNW 11.5 mph - N/A Snow Light Snow
9:55 AM 11.3 °F -1.3 °F 6.8 °F 82% 30.40 in 1.5 mi North 9.2 mph - N/A Snow Light Snow
10:15 AM 11.3 °F -1.3 °F 7.2 °F 83% 30.40 in 1.2 mi North 9.2 mph - N/A Snow Light Snow
10:35 AM 11.3 °F 0.7 °F 7.2 °F 83% 30.39 in 1.2 mi North 6.9 mph - N/A Snow Light Snow
10:55 AM 11.5 °F 0.9 °F 7.5 °F 84% 30.39 in 1.8 mi NNW 6.9 mph - N/A Snow Light Snow
11:15 AM 11.8 °F 2.5 °F 7.0 °F 81% 30.40 in 3.0 mi NNW 5.8 mph - N/A Snow Light Snow
11:35 AM 12.2 °F -0.2 °F 7.5 °F 82% 30.41 in 2.5 mi NNW 9.2 mph - N/A Snow Light Snow
11:55 AM 12.2 °F -1.0 °F 8.8 °F 86% 30.40 in 1.0 mi North 10.4 mph - N/A Snow Light Snow
12:15 PM 11.8 °F -0.7 °F 7.7 °F 83% 30.39 in 1.0 mi North 9.2 mph - N/A Snow Light Snow
12:35 PM 11.8 °F -0.7 °F 7.5 °F 83% 30.39 in 1.2 mi NNW 9.2 mph - N/A Snow Light Snow
12:55 PM 11.8 °F -0.7 °F 7.7 °F 83% 30.38 in 1.2 mi NNW 9.2 mph - N/A Snow Light Snow
1:15 PM 12.6 °F -0.6 °F 8.6 °F 84% 30.38 in 1.5 mi NNW 10.4 mph - N/A Snow Light Snow
1:55 PM 12.9 °F 1.6 °F 8.6 °F 83% 30.37 in 1.8 mi NNW 8.1 mph - N/A Snow Light Snow
2:15 PM 12.9 °F 1.6 °F 8.4 °F 82% 30.37 in 2.5 mi NW 8.1 mph - N/A Snow Light Snow
2:35 PM 13.1 °F 0.9 °F 9.0 °F 84% 30.37 in 2.5 mi NNW 9.2 mph - N/A Snow Light Snow
2:55 PM 13.1 °F 0.9 °F 8.6 °F 82% 30.37 in 5.0 mi NNW 9.2 mph - N/A Snow Light Snow
3:15 PM 12.9 °F 0.7 °F 7.9 °F 80% 30.37 in 10.0 mi NW 9.2 mph - N/A   Overcast
3:35 PM 12.9 °F 0.7 °F 7.7 °F 80% 30.37 in 10.0 mi NW 9.2 mph - N/A   Overcast
3:55 PM 12.9 °F 1.6 °F 8.4 °F 82% 30.37 in 10.0 mi NW 8.1 mph - N/A Snow Light Snow
4:15 PM 13.1 °F 0.9 °F 8.1 °F 80% 30.37 in 10.0 mi NW 9.2 mph - N/A Snow Light Snow
4:35 PM 12.9 °F 1.6 °F 8.4 °F 82% 30.37 in 10.0 mi NW 8.1 mph - N/A Snow Light Snow
4:55 PM 12.7 °F 0.4 °F 7.5 °F 80% 30.36 in 10.0 mi NW 9.2 mph - N/A   Overcast
5:15 PM 12.7 °F 1.4 °F 7.7 °F 80% 30.36 in 10.0 mi NW 8.1 mph - N/A   Overcast
5:35 PM 12.0 °F 1.5 °F 7.3 °F 81% 30.36 in 10.0 mi WNW 6.9 mph - N/A   Overcast
5:55 PM 12.0 °F 0.5 °F 7.5 °F 82% 30.36 in 10.0 mi WNW 8.1 mph - N/A   Overcast
6:15 PM 11.7 °F 0.0 °F 7.5 °F 83% 30.36 in 10.0 mi WNW 8.1 mph - N/A   Overcast
6:35 PM 10.8 °F -2.8 °F 5.9 °F 81% 30.36 in 10.0 mi WNW 10.4 mph - N/A   Overcast
6:55 PM 9.7 °F -2.4 °F 5.5 °F 83% 30.37 in 10.0 mi WNW 8.1 mph - N/A   Overcast
7:15 PM 8.4 °F -3.9 °F 4.3 °F 83% 30.36 in 10.0 mi NW 8.1 mph - N/A   Mostly Cloudy
7:35 PM 5.9 °F -8.9 °F 1.9 °F 84% 30.36 in 10.0 mi WNW 10.4 mph - N/A   Clear
7:55 PM 2.1 °F -13.6 °F -0.9 °F 87% 30.36 in 10.0 mi West 10.4 mph - N/A   Clear
8:15 PM 2.5 °F -12.2 °F -0.6 °F 87% 30.36 in 10.0 mi West 9.2 mph - N/A   Clear
8:35 PM 5.9 °F -9.7 °F 2.8 °F 87% 30.36 in 10.0 mi WNW 11.5 mph - N/A   Clear
8:55 PM 5.9 °F -9.7 °F 2.1 °F 84% 30.35 in 10.0 mi NW 11.5 mph - N/A   Clear
9:15 PM 6.1 °F -8.7 °F 2.1 °F 84% 30.36 in 10.0 mi WNW 10.4 mph - N/A   Mostly Cloudy
9:35 PM 6.4 °F -8.2 °F 2.1 °F 82% 30.35 in 10.0 mi WNW 10.4 mph - N/A   Overcast
9:55 PM 6.4 °F -7.3 °F 2.3 °F 83% 30.35 in 10.0 mi WNW 9.2 mph - N/A   Scattered Clouds
10:15 PM 6.4 °F -8.2 °F 2.3 °F 83% 30.35 in 10.0 mi WNW 10.4 mph - N/A   Clear
10:35 PM 5.4 °F -7.6 °F 1.2 °F 83% 30.35 in 10.0 mi WNW 8.1 mph - N/A   Clear
10:55 PM 4.6 °F -9.5 °F 0.5 °F 83% 30.35 in 10.0 mi NW 9.2 mph - N/A   Clear
11:15 PM 3.7 °F -10.6 °F -0.4 °F 83% 30.35 in 10.0 mi NW 9.2 mph - N/A   Clear
11:35 PM 3.9 °F -10.4 °F -0.8 °F 81% 30.35 in 10.0 mi NW 9.2 mph - N/A   Clear
11:55 PM 1.6 °F -12.2 °F -2.9 °F 81% 30.35 in 10.0 mi WNW 8.1 mph - N/A   Clear